DELTA 1 DEB, 21326

Orbit data source: Space-Track

DELTA 1 DEB, 21326 is space debris in SSO originally from a launch on Thu, 12 Jun 1975 UTC launched from the Air Force Western Test Range (AFWTR). Debris objects in space refer to the collection of defunct objects orbiting the Earth. Examples of debris include non-operational satellites, rocket bodies, and fragments generated from explosions, collisions, or faulty payload assembly.

Loading next visibility...
Identifier
21326, 1975-052AU
Orbit
SSO
Country
Flag of USUS
Related business
Manufacturer
Unknown
Mission
Spacecraft
Bus & Motor
Unknown
Mass
Unknown
Launch date (UTC)
1975-06-12 (51 years ago)
Launch vehicle
Unknown
Launch site
Air Force Western Test Range (AFWTR)
Object type
Payload
Rocket body
Debris
Shape & HBR
Unknown shape, 0.1 m
Radar Cross Section
Medium (>0.1 m² and <1 m²)

Expand to show TLE details & history
Last TLE update: 1 day ago

TLE from 1 day ago
0 DELTA 1 DEB
1 21326U 75052AU  26171.45115420  .00000135  00000-0  31741-3 0  9990
2 21326  99.8271  59.6092 0032132  45.8595 137.0088 13.41862428716415
Epoch: 2026-06-20T10:49Z
TLE epoch observation values (Epoch: 2026-06-20T10:49:39.722Z)
Latitude
-3.20246°
Longitude
167.97563°
Altitude
1,123.213 km
Speed
7.282 km/s
True Right ascension
15h 56m 13s
True Declination
-3° 11' 03"
Sunlit
Object was in full shadow at epoch
Visualization orbit readout
Latitude
Unknown
Longitude
Unknown
Altitude
Unknown
Speed
Unknown
Apparent Right ascension
Unknown
Apparent Declination
Unknown
Sunlit
N/A
Visualization observer readout
Local Sidereal Time
07:38:25
Azimuth
Unknown
Elevation
Unknown
Doppler factor
Unknown
Orbital elements
Apogee altitude
1,123.696 km
Perigee altitude
1,075.641 km
Semi-major axis
7,477.805 km
Eccentricity
0.00321
Inclination
99.8271°
RAAN
59.6092°
Arg. of periapsis
45.8595°
True anomaly
137.25914°
Mean anomaly
137.0088°
Eccentric anomaly
137.13404°
Mean motion
3.35646 °/min
Orbital period
107.26 mins
BSTAR
0.00031741
Loading maneuver chart data...
Computing Atmospheric mass density...
Loading historical data...
Loading historical data...
Loading historical data...
Loading historical data...
Loading historical data...
Loading historical data...
Loading historical data...

Documentation

Showing up to 5 results
|